Location: Waco, TX
(31.5480°N, 97.1670°W)
Time: 19:34:53
(UTC-05:00)

ISS - Pass Details

Date: 18 June 2018
Orbit: 402 x 407 km, 51.6° (Epoch: 25 June)

Event Time Altitude Azimuth Distance (km) Brightness Sun altitude
Rises 17:56:05 0° 321° (NW) 2,323 0.7 31.3°
Reaches altitude 10° 17:58:13 10° 327° (NNW) 1,460 -0.3 30.8°
Maximum altitude 18:01:23 46° 42° (NE) 550 -3.1 30.2°
Drops below altitude 10° 18:04:32 10° 118° (ESE) 1,450 -1.5 29.5°
Sets 18:06:39 0° 124° (SE) 2,305 -0.5 29.1°
